User: anonymous   Login
Location: Unspecified
(0.0000°N, 0.0000°E)
Time: 17:02:48
(UTC+01:00)
Language:

Hamsat - Orbit

View from above orbital plane
View from above orbital plane
View from above satellite
View from above satellite

Ground track
Ground track

The orbit data is extracted from the following two-line orbital elements,

1 28650U 05017B   15086.94650442  .00003811  00000-0  42909-3 0  9998
2 28650 097.5721 083.1252 0022810 302.9727 056.9297 14.87024378535373
Epoch (UTC): 27 March 2015 22:42:57
Eccentricity: 0.0022810
inclination: 97.5721°
perigee height: 591 km
apogee height: 623 km
right ascension of ascending node: 83.1252°
argument of perigee: 302.9727°
revolutions per day: 14.87024378
mean anomaly at epoch: 56.9297°
orbit number at epoch: 53537

The dashed part of the orbit path shows where the satellite is in the earth's shadow,  

DLR